Weather History for KBIS - December, 2011

Change the Weather History Date:

Wednesday, December 28, 2011

  Actual Average Record
Temperature  
Mean Temperature 31 °F 13 °F  
Max Temperature 46 °F 24 °F 52 °F (1999)
Min Temperature 16 °F 3 °F -32 °F (1917)
Degree Days  
Heating Degree Days 34 52  
Month to date heating degree days 1136 1358  
Since 1 July heating degree days 2870 3344  
Cooling Degree Days 0 0  
Month to date cooling degree days 0 0  
Year to date cooling degree days 425 520  
Moisture  
Dew Point 26 °F    
Average Humidity 77    
Maximum Humidity 92    
Minimum Humidity 62    
Precipitation  
Precipitation 0.01 in 0.02 in 0.22 in (1978)
Month to date precipitation 0.22 0.44  
Year to date precipitation 22.97 17.80  
Snow  
Snow 0.00 in 0.30 in 4.20 in (1978)
Month to date snowfall 3.3 8.3  
Since 1 July snowfall 3.9 19.5  
Snow Depth 0.00 in    
Sea Level Pressure  
Sea Level Pressure 29.70 in    
Wind  
Wind Speed 5 mph (West)    
Max Wind Speed 15 mph    
Max Gust Speed 18 mph    
Visibility 10 miles    
Events      
T = Trace of Precipitation, MM = Missing Value Source: NWS Daily Summary

Daily Weather History Graph

Daily Weather History Graph

Search for Another Location

Airport or City:

Trip Planner

Search our weather history database for the weather conditions in past years. The results will help you decide how hot, cold, wet, or windy it might be!

Date:

Astronomy

Dec. 28, 2011 Rise Set
Actual Time 8:27 AM CST 5:01 PM CST
Civil Twilight 7:52 AM CST 5:36 PM CST
Nautical Twilight 7:13 AM CST 6:15 PM CST
Astronomical Twilight 6:36 AM CST 6:52 PM CST
Moon 10:38 AM CST (12/28) 9:57 PM CST (12/28)
Length of Visible Light 9h 44m
Length of Day
8h 34m
Waxing Crescent, 18% of the Moon is Illuminated
Dec 28
Waxing Crescent
Jan 1
First Quarter
Jan 9
Full
Jan 16
Last Quarter
Jan 23
New

Hourly Weather History & Observations

Time (CST) Temp. Windchill Dew Point Humidity Pressure Visibility Wind Dir Wind Speed Gust Speed Precip Events Conditions
12:52 AM 21.0 °F - 17.1 °F 85% 29.84 in 10.0 mi Calm Calm - N/A   Clear
1:52 AM 23.0 °F - 18.0 °F 81% 29.84 in 10.0 mi Calm Calm - N/A   Clear
2:52 AM 28.9 °F 20.4 °F 21.9 °F 75% 29.84 in 10.0 mi WNW 9.2 mph - N/A   Clear
3:52 AM 28.9 °F 20.4 °F 21.9 °F 75% 29.83 in 10.0 mi West 9.2 mph - N/A   Clear
4:52 AM 27.0 °F 18.7 °F 21.0 °F 78% 29.83 in 10.0 mi West 8.1 mph - N/A   Clear
5:52 AM 24.1 °F 19.7 °F 19.9 °F 84% 29.82 in 10.0 mi WSW 3.5 mph - N/A   Clear
6:52 AM 25.0 °F 16.3 °F 19.9 °F 81% 29.84 in 10.0 mi WSW 8.1 mph - N/A   Clear
7:52 AM 21.0 °F - 19.0 °F 92% 29.83 in 10.0 mi Calm Calm - N/A   Clear
8:52 AM 21.0 °F 16.2 °F 18.0 °F 88% 29.81 in 10.0 mi WSW 3.5 mph - N/A   Clear
9:52 AM 26.1 °F - 21.0 °F 81% 29.81 in 10.0 mi Calm Calm - N/A   Clear
10:52 AM 30.0 °F - 25.0 °F 82% 29.78 in 10.0 mi Calm Calm - N/A   Scattered Clouds
11:52 AM 35.1 °F - 27.0 °F 72% 29.73 in 10.0 mi Calm Calm - N/A   Overcast
12:52 PM 35.1 °F 30.1 °F 28.9 °F 78% 29.68 in 10.0 mi SSE 5.8 mph - N/A   Overcast
1:52 PM 37.0 °F 32.4 °F 32.0 °F 82% 29.63 in 10.0 mi ESE 5.8 mph - 0.01 in   Overcast
2:52 PM 43.0 °F - 32.0 °F 65% 29.57 in 10.0 mi Calm Calm - 0.00 in   Overcast
3:52 PM 44.6 °F 40.2 °F 33.8 °F 66% 29.52 in 10.0 mi SSW 8.1 mph - N/A   Scattered Clouds
4:52 PM 43.0 °F 39.5 °F 30.0 °F 60% 29.56 in 10.0 mi SW 5.8 mph - N/A   Partly Cloudy
5:52 PM 41.0 °F 36.4 °F 30.0 °F 65% 29.55 in 10.0 mi WSW 6.9 mph - N/A   Clear
6:52 PM 42.1 °F 37.1 °F 30.0 °F 62% 29.57 in 10.0 mi WNW 8.1 mph - N/A   Clear
7:52 PM 37.9 °F 32.7 °F 28.9 °F 70% 29.59 in 10.0 mi WNW 6.9 mph - N/A   Clear
8:52 PM 35.1 °F 27.9 °F 28.9 °F 78% 29.60 in 10.0 mi West 9.2 mph - N/A   Clear
9:52 PM 37.4 °F 29.8 °F 30.2 °F 75% 29.55 in 10.0 mi West 11.5 mph - N/A   Clear
10:52 PM 37.0 °F 28.9 °F 30.0 °F 76% 29.61 in 10.0 mi West 12.7 mph - N/A   Clear
11:52 PM 36.0 °F 29.6 °F 30.0 °F 79% 29.62 in 10.0 mi NW 8.1 mph - N/A   Clear